DAL967 KRDU-KSLC

Flight info

Callsign DAL967
Flight time 4h 19m
Altitude 32000
Route SHPRD4 SHPRD HMV LOZ OLSIE BUNCO FAM/N0461F340 MAHER KK48G HYS FQF JESIE EKR PITTT2
Aircraft B739/M-SDE2E3FGHIRWXY/LB1

Departure

Time 2026-05-04 10:57
Airport Raleigh-Durham International Airport (KRDU)

Arrival

Time 2026-05-04 15:17
Airport Salt Lake City International Airport (KSLC)
Time Latitude Longitude Altitude Speed Heading
2026-05-04 10:40 35.87757 -78.79417 391 ft 0 kts 135°
2026-05-04 10:50 35.87757 -78.79418 363 ft 2 kts 135°
2026-05-04 10:51 35.87770 -78.79503 391 ft 0 kts 45°
2026-05-04 10:54 35.88334 -78.78908 390 ft 29 kts 45°
2026-05-04 10:54 35.88479 -78.78729 391 ft 30 kts 45°
2026-05-04 10:56 35.89295 -78.77744 391 ft 13 kts
2026-05-04 10:56 35.89360 -78.77811 392 ft 13 kts 279°
2026-05-04 10:56 35.89304 -78.77902 391 ft 22 kts 225°
2026-05-04 10:57 35.89034 -78.78237 390 ft 87 kts 225°
2026-05-04 10:57 35.88468 -78.78937 390 ft 141 kts 225°
2026-05-04 10:57 35.87677 -78.79902 529 ft 169 kts 224°
2026-05-04 10:57 35.86831 -78.80929 1106 ft 172 kts 224°
2026-05-04 10:58 35.86017 -78.81931 1911 ft 162 kts 226°
2026-05-04 10:58 35.85264 -78.83006 2358 ft 176 kts 243°
2026-05-04 10:58 35.85095 -78.84577 2534 ft 198 kts 268°
2026-05-04 10:58 35.85072 -78.86373 2718 ft 220 kts 266°
2026-05-04 10:59 35.85020 -78.88358 2985 ft 241 kts 266°
2026-05-04 10:59 35.84961 -78.90440 3721 ft 243 kts 266°
2026-05-04 10:59 35.84899 -78.92500 4482 ft 245 kts 267°
2026-05-04 10:59 35.84833 -78.94606 5223 ft 247 kts 267°
2026-05-04 11:00 35.84763 -78.96737 5942 ft 250 kts 267°
2026-05-04 11:01 35.84211 -79.12242 10445 ft 279 kts 268°
2026-05-04 11:02 35.84121 -79.14693 10609 ft 299 kts 268°
2026-05-04 11:02 35.84023 -79.17337 10765 ft 318 kts 268°
2026-05-04 11:05 35.80552 -79.61293 17052 ft 388 kts 260°
2026-05-04 11:06 35.79968 -79.64509 17471 ft 391 kts 260°
2026-05-04 11:06 35.79373 -79.67799 17836 ft 394 kts 260°
2026-05-04 11:06 35.78783 -79.71117 18285 ft 397 kts 260°
2026-05-04 11:06 35.78200 -79.74442 18703 ft 398 kts 260°
2026-05-04 11:08 35.74110 -79.98106 21365 ft 411 kts 260°
2026-05-04 11:10 35.69850 -80.22515 23728 ft 423 kts 260°
2026-05-04 11:12 35.66507 -80.47575 25627 ft 425 kts 281°
2026-05-04 11:12 35.67246 -80.51086 25966 ft 424 kts 289°
2026-05-04 11:12 35.68502 -80.54366 26327 ft 423 kts 300°
2026-05-04 11:12 35.70025 -80.57444 26787 ft 419 kts 300°
2026-05-04 11:13 35.71519 -80.60464 27222 ft 416 kts 300°
2026-05-04 11:13 35.73020 -80.63513 27639 ft 414 kts 300°
2026-05-04 11:13 35.74501 -80.66543 28059 ft 412 kts 299°
2026-05-04 11:13 35.75971 -80.69569 28487 ft 410 kts 299°
2026-05-04 11:14 35.76443 -80.70543 28613 ft 409 kts 299°
2026-05-04 11:14 35.79341 -80.76549 29487 ft 404 kts 299°
2026-05-04 11:16 35.90111 -80.99003 32031 ft 392 kts 299°
2026-05-04 11:16 35.92890 -81.04822 32109 ft 391 kts 299°
2026-05-04 11:17 35.95632 -81.10570 32104 ft 387 kts 299°
2026-05-04 11:19 36.06493 -81.33444 32107 ft 387 kts 299°
2026-05-04 11:19 36.09223 -81.39217 32101 ft 388 kts 299°
2026-05-04 11:20 36.11952 -81.45000 32100 ft 390 kts 299°
2026-05-04 11:20 36.14688 -81.50807 32081 ft 391 kts 299°
2026-05-04 11:22 36.25601 -81.74063 32086 ft 392 kts 298°
2026-05-04 11:23 36.28338 -81.79921 32074 ft 392 kts 298°
2026-05-04 11:25 36.37887 -82.00443 32088 ft 393 kts 298°
2026-05-04 11:25 36.40610 -82.06316 32088 ft 393 kts 298°
2026-05-04 11:27 36.50277 -82.34169 32137 ft 391 kts 291°
2026-05-04 11:28 36.52222 -82.40469 32095 ft 390 kts 291°
2026-05-04 11:28 36.54162 -82.46762 32098 ft 390 kts 291°
2026-05-04 11:29 36.56103 -82.53069 32081 ft 389 kts 291°
2026-05-04 11:29 36.58036 -82.59368 32082 ft 389 kts 291°
2026-05-04 11:33 36.71160 -83.02490 32071 ft 392 kts 291°
2026-05-04 11:33 36.73088 -83.08879 32080 ft 392 kts 291°
2026-05-04 11:34 36.75005 -83.15249 32078 ft 392 kts 290°
2026-05-04 11:34 36.76909 -83.21592 32050 ft 394 kts 291°
2026-05-04 11:35 36.78836 -83.28021 32063 ft 395 kts 290°
2026-05-04 11:35 36.80759 -83.34454 32099 ft 396 kts 291°
2026-05-04 11:36 36.82685 -83.40908 32060 ft 396 kts 291°
2026-05-04 11:36 36.84588 -83.47308 32048 ft 395 kts 290°
2026-05-04 11:37 36.86497 -83.53739 32043 ft 394 kts 290°
2026-05-04 11:37 36.88400 -83.60160 32054 ft 394 kts 290°
2026-05-04 11:38 36.90297 -83.66586 32040 ft 394 kts 290°
2026-05-04 11:38 36.92190 -83.73008 32051 ft 394 kts 290°
2026-05-04 11:39 36.94073 -83.79410 32053 ft 394 kts 290°
2026-05-04 11:41 37.00681 -84.01992 32038 ft 397 kts 290°
2026-05-04 11:41 37.02569 -84.08480 32036 ft 397 kts 289°
2026-05-04 11:42 37.03815 -84.15221 32053 ft 399 kts 279°
2026-05-04 11:42 37.04531 -84.22130 32045 ft 399 kts 279°
2026-05-04 11:43 37.05265 -84.28990 32020 ft 400 kts 279°
2026-05-04 11:43 37.06011 -84.35906 32028 ft 400 kts 279°
2026-05-04 11:44 37.06754 -84.42813 32026 ft 400 kts 279°
2026-05-04 11:44 37.07488 -84.49681 32034 ft 399 kts 279°
2026-05-04 11:45 37.08223 -84.56588 32037 ft 400 kts 279°
2026-05-04 11:45 37.08954 -84.63502 32023 ft 400 kts 279°
2026-05-04 11:46 37.09680 -84.70409 32017 ft 400 kts 278°
2026-05-04 11:46 37.10398 -84.77277 32030 ft 400 kts 278°
2026-05-04 11:47 37.11118 -84.84204 32026 ft 400 kts 278°
2026-05-04 11:47 37.11834 -84.91134 32024 ft 401 kts 278°
2026-05-04 11:48 37.12542 -84.98023 32020 ft 401 kts 278°
2026-05-04 11:48 37.13249 -85.04952 32051 ft 400 kts 278°
2026-05-04 11:49 37.13953 -85.11882 32014 ft 400 kts 278°
2026-05-04 11:49 37.14650 -85.18792 32010 ft 399 kts 278°
2026-05-04 11:50 37.15342 -85.25686 32005 ft 398 kts 278°
2026-05-04 11:50 37.16029 -85.32574 32004 ft 398 kts 278°
2026-05-04 11:51 37.16711 -85.39454 32006 ft 398 kts 278°
2026-05-04 11:51 37.17387 -85.46306 31995 ft 398 kts 278°
2026-05-04 11:52 37.18062 -85.53202 31999 ft 398 kts 278°
2026-05-04 11:52 37.18734 -85.60102 32003 ft 399 kts 278°
2026-05-04 11:53 37.19404 -85.67027 32003 ft 400 kts 278°
2026-05-04 11:53 37.20068 -85.73930 32008 ft 401 kts 278°
2026-05-04 11:55 37.22699 -86.01715 32009 ft 401 kts 277°
2026-05-04 11:56 37.23350 -86.08670 32001 ft 401 kts 278°
2026-05-04 11:56 37.24049 -86.15615 32001 ft 401 kts 278°
2026-05-04 11:57 37.24761 -86.22566 31988 ft 401 kts 278°
2026-05-04 11:57 37.25460 -86.29477 31991 ft 401 kts 278°
2026-05-04 11:58 37.26158 -86.36442 31990 ft 402 kts 278°
2026-05-04 11:58 37.26849 -86.43405 31986 ft 402 kts 278°
2026-05-04 11:59 37.27536 -86.50368 31983 ft 402 kts 278°
2026-05-04 11:59 37.28216 -86.57302 31980 ft 402 kts 278°
2026-05-04 12:00 37.28896 -86.64281 31982 ft 402 kts 278°
2026-05-04 12:00 37.29571 -86.71255 31982 ft 402 kts 277°
2026-05-04 12:01 37.30242 -86.78228 31984 ft 402 kts 277°
2026-05-04 12:02 37.32558 -87.02643 31970 ft 402 kts 277°
2026-05-04 12:03 37.33211 -87.09624 31969 ft 402 kts 277°
2026-05-04 12:03 37.33860 -87.16609 31967 ft 402 kts 277°
2026-05-04 12:04 37.34502 -87.23568 31960 ft 403 kts 277°
2026-05-04 12:04 37.35145 -87.30574 31958 ft 403 kts 277°
2026-05-04 12:05 37.35778 -87.37525 31954 ft 402 kts 277°
2026-05-04 12:05 37.36411 -87.44527 31948 ft 402 kts 277°
2026-05-04 12:06 37.37039 -87.51514 31947 ft 402 kts 277°
2026-05-04 12:06 37.37663 -87.58500 31945 ft 402 kts 277°
2026-05-04 12:07 37.38280 -87.65456 31953 ft 402 kts 277°
2026-05-04 12:07 37.38897 -87.72453 31941 ft 402 kts 277°
2026-05-04 12:08 37.39509 -87.79453 31961 ft 402 kts 277°
2026-05-04 12:08 37.40114 -87.86417 31963 ft 403 kts 277°
2026-05-04 12:09 37.40717 -87.93412 31966 ft 403 kts 277°
2026-05-04 12:09 37.41318 -88.00423 31968 ft 403 kts 277°
2026-05-04 12:10 37.41914 -88.07431 31974 ft 403 kts 277°
2026-05-04 12:10 37.42507 -88.14445 31937 ft 403 kts 277°
2026-05-04 12:11 37.43096 -88.21474 31933 ft 404 kts 277°
2026-05-04 12:11 37.43677 -88.28450 31935 ft 404 kts 277°
2026-05-04 12:12 37.44259 -88.35494 31929 ft 404 kts 277°
2026-05-04 12:12 37.44836 -88.42521 31936 ft 404 kts 277°
2026-05-04 12:14 37.47006 -88.69451 31956 ft 405 kts 277°
2026-05-04 12:15 37.47565 -88.76511 31929 ft 404 kts 277°
2026-05-04 12:15 37.48119 -88.83570 31922 ft 404 kts 277°
2026-05-04 12:16 37.48667 -88.90596 31915 ft 403 kts 276°
2026-05-04 12:16 37.49347 -88.97575 31922 ft 403 kts 281°
2026-05-04 12:17 37.50377 -89.04502 31916 ft 403 kts 281°
2026-05-04 12:17 37.51425 -89.11449 31915 ft 403 kts 281°
2026-05-04 12:18 37.52456 -89.18409 31916 ft 404 kts 281°
2026-05-04 12:18 37.53468 -89.25328 31907 ft 404 kts 281°
2026-05-04 12:19 37.54481 -89.32308 31917 ft 404 kts 281°
2026-05-04 12:19 37.55489 -89.39286 31919 ft 405 kts 281°
2026-05-04 12:20 37.56495 -89.46277 31915 ft 405 kts 281°
2026-05-04 12:20 37.57493 -89.53242 31911 ft 406 kts 281°
2026-05-04 12:21 37.58490 -89.60234 31910 ft 406 kts 281°
2026-05-04 12:21 37.59485 -89.67242 31910 ft 405 kts 281°
2026-05-04 12:22 37.60477 -89.74260 31909 ft 405 kts 281°
2026-05-04 12:22 37.61456 -89.81218 31912 ft 405 kts 280°
2026-05-04 12:23 37.62437 -89.88218 31907 ft 405 kts 280°
2026-05-04 12:23 37.63413 -89.95217 31907 ft 405 kts 280°
2026-05-04 12:24 37.64386 -90.02221 31906 ft 405 kts 280°
2026-05-04 12:24 37.65350 -90.09193 31908 ft 405 kts 280°
2026-05-04 12:25 37.66314 -90.16198 31910 ft 405 kts 280°
2026-05-04 12:25 37.67270 -90.23229 31929 ft 408 kts 279°
2026-05-04 12:26 37.67566 -90.26808 32105 ft 409 kts 276°
2026-05-04 12:26 37.67791 -90.30372 32456 ft 406 kts 276°
2026-05-04 12:26 37.68004 -90.33915 32833 ft 403 kts 276°
2026-05-04 12:26 37.68214 -90.37441 33197 ft 401 kts 276°
2026-05-04 12:27 37.68426 -90.40941 33484 ft 400 kts 276°
2026-05-04 12:27 37.68636 -90.44393 33715 ft 400 kts 276°
2026-05-04 12:27 37.68851 -90.47883 33921 ft 398 kts 276°
2026-05-04 12:27 37.69066 -90.51378 33905 ft 400 kts 276°
2026-05-04 12:28 37.69497 -90.58370 33908 ft 399 kts 276°
2026-05-04 12:28 37.69923 -90.65345 33914 ft 398 kts 276°
2026-05-04 12:29 37.70345 -90.72326 33915 ft 398 kts 276°
2026-05-04 12:29 37.70763 -90.79299 33898 ft 398 kts 275°
2026-05-04 12:30 37.71173 -90.86225 33903 ft 398 kts 275°
2026-05-04 12:30 37.71584 -90.93222 33892 ft 399 kts 275°
2026-05-04 12:31 37.71990 -91.00215 33884 ft 399 kts 275°
2026-05-04 12:31 37.72393 -91.07223 33873 ft 399 kts 275°
2026-05-04 12:32 37.72988 -91.17703 33865 ft 400 kts 275°
2026-05-04 12:33 37.73381 -91.24717 33866 ft 400 kts 275°
2026-05-04 12:33 37.73769 -91.31731 33873 ft 400 kts 275°
2026-05-04 12:34 37.74152 -91.38712 33856 ft 401 kts 275°
2026-05-04 12:34 37.74533 -91.45742 33858 ft 401 kts 275°
2026-05-04 12:35 37.74910 -91.52777 33847 ft 401 kts 275°
2026-05-04 12:35 37.75284 -91.59827 33852 ft 402 kts 275°
2026-05-04 12:36 37.75651 -91.66838 33851 ft 402 kts 275°
2026-05-04 12:36 37.76017 -91.73895 33836 ft 402 kts 275°
2026-05-04 12:37 37.76378 -91.80954 33839 ft 403 kts 275°
2026-05-04 12:37 37.76736 -91.88016 33839 ft 403 kts 275°
2026-05-04 12:38 37.77089 -91.95081 33832 ft 403 kts 275°
2026-05-04 12:38 37.77439 -92.02158 33844 ft 403 kts 275°
2026-05-04 12:39 37.77852 -92.09233 33838 ft 403 kts 278°
2026-05-04 12:39 37.78692 -92.16185 33847 ft 403 kts 279°
2026-05-04 12:40 37.79604 -92.23187 33843 ft 403 kts 279°
2026-05-04 12:40 37.80490 -92.30190 33834 ft 403 kts 279°
2026-05-04 12:41 37.81356 -92.37216 33830 ft 403 kts 279°
2026-05-04 12:41 37.82208 -92.44224 33840 ft 403 kts 279°
2026-05-04 12:42 37.83055 -92.51240 33847 ft 403 kts 279°
2026-05-04 12:42 37.83893 -92.58220 33849 ft 403 kts 279°
2026-05-04 12:43 37.84734 -92.65254 33851 ft 403 kts 279°
2026-05-04 12:43 37.85570 -92.72283 33840 ft 404 kts 279°
2026-05-04 12:44 37.86396 -92.79269 33844 ft 404 kts 279°
2026-05-04 12:44 37.87227 -92.86322 33800 ft 404 kts 279°
2026-05-04 12:45 37.88051 -92.93367 33797 ft 405 kts 279°
2026-05-04 12:45 37.88873 -93.00423 33803 ft 405 kts 279°
2026-05-04 12:46 37.89686 -93.07445 33792 ft 405 kts 279°
2026-05-04 12:46 37.90499 -93.14505 33799 ft 405 kts 279°
2026-05-04 12:47 37.91309 -93.21571 33817 ft 405 kts 279°
2026-05-04 12:47 37.92109 -93.28588 33802 ft 405 kts 279°
2026-05-04 12:48 37.92909 -93.35647 33800 ft 404 kts 279°
2026-05-04 12:48 37.93704 -93.42708 33791 ft 403 kts 279°
2026-05-04 12:49 37.94493 -93.49743 33796 ft 403 kts 279°
2026-05-04 12:49 37.95273 -93.56738 33783 ft 403 kts 279°
2026-05-04 12:50 37.96053 -93.63778 33790 ft 403 kts 279°
2026-05-04 12:50 37.96829 -93.70818 33788 ft 403 kts 279°
2026-05-04 12:51 37.97596 -93.77810 33786 ft 403 kts 279°
2026-05-04 12:51 37.98363 -93.84851 33776 ft 403 kts 279°
2026-05-04 12:52 37.99127 -93.91893 33783 ft 403 kts 279°
2026-05-04 12:52 37.99888 -93.98942 33784 ft 403 kts 279°
2026-05-04 12:53 38.00982 -94.05863 33793 ft 403 kts 283°
2026-05-04 12:53 38.02298 -94.12779 33779 ft 403 kts 284°
2026-05-04 12:54 38.03610 -94.19700 33759 ft 403 kts 284°
2026-05-04 12:54 38.04896 -94.26638 33773 ft 404 kts 284°
2026-05-04 12:55 38.06166 -94.33580 33775 ft 404 kts 283°
2026-05-04 12:55 38.07424 -94.40500 33773 ft 405 kts 283°
2026-05-04 12:56 38.08686 -94.47470 33771 ft 405 kts 283°
2026-05-04 12:56 38.09943 -94.54442 33771 ft 405 kts 283°
2026-05-04 12:57 38.11199 -94.61430 33761 ft 405 kts 283°
2026-05-04 12:57 38.12446 -94.68394 33758 ft 404 kts 283°
2026-05-04 12:58 38.13479 -94.74182 33755 ft 404 kts 283°
2026-05-04 12:58 38.14715 -94.81129 33757 ft 403 kts 283°
2026-05-04 12:59 38.15948 -94.88082 33753 ft 403 kts 283°
2026-05-04 12:59 38.17169 -94.95000 33752 ft 402 kts 283°
2026-05-04 13:00 38.18390 -95.01939 33751 ft 402 kts 283°
2026-05-04 13:00 38.19607 -95.08883 33752 ft 402 kts 283°
2026-05-04 13:01 38.20820 -95.15827 33752 ft 402 kts 283°
2026-05-04 13:01 38.22022 -95.22734 33744 ft 402 kts 283°
2026-05-04 13:02 38.23233 -95.29718 33740 ft 402 kts 283°
2026-05-04 13:02 38.24426 -95.36627 33732 ft 402 kts 283°
2026-05-04 13:03 38.25624 -95.43588 33737 ft 402 kts 283°
2026-05-04 13:03 38.26819 -95.50559 33734 ft 403 kts 283°
2026-05-04 13:04 38.28012 -95.57541 33729 ft 403 kts 283°
2026-05-04 13:04 38.29194 -95.64489 33770 ft 403 kts 283°
2026-05-04 13:05 38.30380 -95.71490 33773 ft 404 kts 283°
2026-05-04 13:05 38.31554 -95.78442 33767 ft 404 kts 283°
2026-05-04 13:06 38.32732 -95.85448 33764 ft 404 kts 283°
2026-05-04 13:06 38.33907 -95.92458 33754 ft 404 kts 283°
2026-05-04 13:07 38.35077 -95.99471 33741 ft 404 kts 283°
2026-05-04 13:07 38.36236 -96.06444 33746 ft 404 kts 283°
2026-05-04 13:08 38.37397 -96.13456 33753 ft 404 kts 283°
2026-05-04 13:08 38.38554 -96.20469 33749 ft 404 kts 283°
2026-05-04 13:09 38.39702 -96.27456 33749 ft 404 kts 283°
2026-05-04 13:09 38.40852 -96.34479 33738 ft 404 kts 283°
2026-05-04 13:10 38.41989 -96.41459 33734 ft 404 kts 283°
2026-05-04 13:10 38.43131 -96.48492 33717 ft 404 kts 283°
2026-05-04 13:11 38.44268 -96.55520 33718 ft 405 kts 283°
2026-05-04 13:11 38.45405 -96.62579 33705 ft 405 kts 283°
2026-05-04 13:12 38.46528 -96.69581 33713 ft 405 kts 283°
2026-05-04 13:12 38.47655 -96.76634 33704 ft 405 kts 283°
2026-05-04 13:13 38.48776 -96.83678 33702 ft 405 kts 282°
2026-05-04 13:13 38.49893 -96.90729 33694 ft 404 kts 282°
2026-05-04 13:14 38.50998 -96.97729 33695 ft 404 kts 282°
2026-05-04 13:14 38.52106 -97.04779 33698 ft 404 kts 282°
2026-05-04 13:15 38.53211 -97.11841 33698 ft 405 kts 282°
2026-05-04 13:15 38.54311 -97.18898 33691 ft 405 kts 282°
2026-05-04 13:16 38.55400 -97.25908 33697 ft 405 kts 282°
2026-05-04 13:16 38.56490 -97.32961 33696 ft 405 kts 282°
2026-05-04 13:17 38.57577 -97.40023 33696 ft 405 kts 282°
2026-05-04 13:17 38.58660 -97.47086 33689 ft 405 kts 282°
2026-05-04 13:18 38.59738 -97.54148 33712 ft 405 kts 282°
2026-05-04 13:18 38.60813 -97.61221 33702 ft 405 kts 282°
2026-05-04 13:19 38.61883 -97.68293 33710 ft 404 kts 282°
2026-05-04 13:19 38.62941 -97.75310 33708 ft 405 kts 282°
2026-05-04 13:20 38.64005 -97.82404 33709 ft 405 kts 282°
2026-05-04 13:20 38.65063 -97.89480 33697 ft 405 kts 282°
2026-05-04 13:21 38.66111 -97.96526 33683 ft 405 kts 282°
2026-05-04 13:21 38.67160 -98.03610 33683 ft 405 kts 281°
2026-05-04 13:22 38.68204 -98.10685 33681 ft 404 kts 281°
2026-05-04 13:22 38.69243 -98.17761 33682 ft 404 kts 281°
2026-05-04 13:23 38.70277 -98.24837 33673 ft 404 kts 281°
2026-05-04 13:23 38.71301 -98.31872 33674 ft 404 kts 281°
2026-05-04 13:24 38.72327 -98.38954 33664 ft 404 kts 281°
2026-05-04 13:24 38.73347 -98.46026 33680 ft 403 kts 281°
2026-05-04 13:25 38.74867 -98.56619 33691 ft 403 kts 281°
2026-05-04 13:25 38.75870 -98.63650 33708 ft 402 kts 281°
2026-05-04 13:26 38.76872 -98.70706 33715 ft 402 kts 281°
2026-05-04 13:26 38.77867 -98.77748 33721 ft 401 kts 281°
2026-05-04 13:27 38.78849 -98.84724 33737 ft 399 kts 281°
2026-05-04 13:27 38.79832 -98.91736 33723 ft 400 kts 281°
2026-05-04 13:28 38.80812 -98.98763 33718 ft 401 kts 281°
2026-05-04 13:28 38.81792 -99.05822 33728 ft 402 kts 281°
2026-05-04 13:29 38.82766 -99.12874 33739 ft 401 kts 281°
2026-05-04 13:29 38.83727 -99.19858 33743 ft 399 kts 281°
2026-05-04 13:30 38.84686 -99.26860 33748 ft 398 kts 281°
2026-05-04 13:30 38.85836 -99.33794 33750 ft 396 kts 284°
2026-05-04 13:31 38.87117 -99.40678 33688 ft 396 kts 284°
2026-05-04 13:31 38.88390 -99.47558 33683 ft 395 kts 284°
2026-05-04 13:32 38.89630 -99.54370 33677 ft 393 kts 284°
2026-05-04 13:32 38.90861 -99.61199 33688 ft 392 kts 284°
2026-05-04 13:33 38.92081 -99.68012 33685 ft 391 kts 284°
2026-05-04 13:33 38.93297 -99.74831 33685 ft 390 kts 284°
2026-05-04 13:34 38.94504 -99.81627 33692 ft 391 kts 283°
2026-05-04 13:34 38.95712 -99.88452 33688 ft 392 kts 283°
2026-05-04 13:35 38.97517 -99.98688 33677 ft 393 kts 283°
2026-05-04 13:36 38.98723 -100.05561 33672 ft 393 kts 283°
2026-05-04 13:36 38.99923 -100.12422 33677 ft 393 kts 283°
2026-05-04 13:37 39.01118 -100.19284 33680 ft 393 kts 283°
2026-05-04 13:37 39.02302 -100.26111 33674 ft 392 kts 283°
2026-05-04 13:38 39.03485 -100.32951 33675 ft 391 kts 283°
2026-05-04 13:38 39.04663 -100.39789 33690 ft 391 kts 283°
2026-05-04 13:39 39.05637 -100.45462 33712 ft 390 kts 283°
2026-05-04 13:39 39.06805 -100.52291 33740 ft 390 kts 283°
2026-05-04 13:40 39.07968 -100.59112 33753 ft 390 kts 283°
2026-05-04 13:40 39.09125 -100.65928 33816 ft 389 kts 283°
2026-05-04 13:41 39.10272 -100.72707 33817 ft 390 kts 283°
2026-05-04 13:41 39.11425 -100.79551 33807 ft 391 kts 283°
2026-05-04 13:42 39.13154 -100.89856 33805 ft 393 kts 283°
2026-05-04 13:42 39.14302 -100.96735 33790 ft 393 kts 283°
2026-05-04 13:43 39.15447 -101.03620 33765 ft 393 kts 283°
2026-05-04 13:43 39.16588 -101.10512 33735 ft 393 kts 283°
2026-05-04 13:44 39.17726 -101.17405 33714 ft 393 kts 283°
2026-05-04 13:44 39.18857 -101.24291 33686 ft 393 kts 282°
2026-05-04 13:45 39.19986 -101.31186 33678 ft 393 kts 282°
2026-05-04 13:45 39.21103 -101.38034 33713 ft 392 kts 282°
2026-05-04 13:46 39.22221 -101.44917 33737 ft 392 kts 282°
2026-05-04 13:46 39.23335 -101.51805 33764 ft 392 kts 282°
2026-05-04 13:47 39.24448 -101.58710 33791 ft 393 kts 282°
2026-05-04 13:47 39.25553 -101.65591 33801 ft 394 kts 282°
2026-05-04 13:48 39.26661 -101.72523 33803 ft 394 kts 282°
2026-05-04 13:48 39.27766 -101.79464 33800 ft 394 kts 282°
2026-05-04 13:49 39.28868 -101.86413 33782 ft 394 kts 282°
2026-05-04 13:49 39.29963 -101.93347 33763 ft 394 kts 282°
2026-05-04 13:50 39.31048 -102.00244 33741 ft 394 kts 282°
2026-05-04 13:50 39.32136 -102.07187 33728 ft 393 kts 282°
2026-05-04 13:51 39.33216 -102.14111 33702 ft 392 kts 282°
2026-05-04 13:51 39.34282 -102.20970 33836 ft 391 kts 282°
2026-05-04 13:52 39.35880 -102.31306 33835 ft 391 kts 282°
2026-05-04 13:53 39.36939 -102.38194 33844 ft 391 kts 281°
2026-05-04 13:53 39.37998 -102.45112 33703 ft 392 kts 281°
2026-05-04 13:54 39.39581 -102.55504 33711 ft 393 kts 281°
2026-05-04 13:55 39.41160 -102.65930 33711 ft 394 kts 281°
2026-05-04 13:55 39.42723 -102.76319 33711 ft 394 kts 281°
2026-05-04 13:56 39.43765 -102.83282 33719 ft 392 kts 281°
2026-05-04 13:57 39.45303 -102.93616 33732 ft 390 kts 281°
2026-05-04 13:58 39.47338 -103.07395 33735 ft 389 kts 281°
2026-05-04 13:58 39.48849 -103.17696 33725 ft 387 kts 281°
2026-05-04 13:59 39.49847 -103.24541 33763 ft 386 kts 281°
2026-05-04 14:00 39.51335 -103.34798 33759 ft 390 kts 281°
2026-05-04 14:00 39.52830 -103.45178 33760 ft 392 kts 280°
2026-05-04 14:01 39.53828 -103.52135 33760 ft 392 kts 280°
2026-05-04 14:02 39.55309 -103.62531 33767 ft 390 kts 280°
2026-05-04 14:02 39.56289 -103.69444 33763 ft 389 kts 280°
2026-05-04 14:03 39.57256 -103.76296 33760 ft 389 kts 280°
2026-05-04 14:03 39.58225 -103.83199 33759 ft 388 kts 280°
2026-05-04 14:04 39.59666 -103.93513 33750 ft 386 kts 280°
2026-05-04 14:04 39.60610 -104.00308 33756 ft 384 kts 280°
2026-05-04 14:05 39.62026 -104.10560 33758 ft 385 kts 280°
2026-05-04 14:06 39.62969 -104.17424 33782 ft 387 kts 280°
2026-05-04 14:06 39.63906 -104.24284 33819 ft 388 kts 280°
2026-05-04 14:07 39.64847 -104.31193 33843 ft 388 kts 280°
2026-05-04 14:07 39.65781 -104.38092 33867 ft 388 kts 280°
2026-05-04 14:08 39.66711 -104.44986 33896 ft 388 kts 280°
2026-05-04 14:08 39.67635 -104.51875 33916 ft 387 kts 280°
2026-05-04 14:09 39.69012 -104.62179 33750 ft 387 kts 280°
2026-05-04 14:10 39.70598 -104.72458 33765 ft 387 kts 281°
2026-05-04 14:10 39.71698 -104.79295 33762 ft 386 kts 281°
2026-05-04 14:11 39.72776 -104.86101 33751 ft 386 kts 281°
2026-05-04 14:11 39.74378 -104.96350 33772 ft 385 kts 281°
2026-05-04 14:12 39.75434 -105.03156 33885 ft 383 kts 281°
2026-05-04 14:13 39.77001 -105.13311 33915 ft 381 kts 281°
2026-05-04 14:13 39.78037 -105.20061 33900 ft 381 kts 281°
2026-05-04 14:14 39.79069 -105.26816 33894 ft 381 kts 281°
2026-05-04 14:14 39.80603 -105.36897 33860 ft 380 kts 281°
2026-05-04 14:15 39.82638 -105.50364 33836 ft 379 kts 281°
2026-05-04 14:16 39.84152 -105.60466 33794 ft 379 kts 281°
2026-05-04 14:17 39.85658 -105.70562 33831 ft 382 kts 280°
2026-05-04 14:18 39.87174 -105.80806 33862 ft 385 kts 280°
2026-05-04 14:19 39.89193 -105.94548 33865 ft 386 kts 280°
2026-05-04 14:19 39.90196 -106.01409 33881 ft 385 kts 280°
2026-05-04 14:20 39.91188 -106.08223 33889 ft 385 kts 280°
2026-05-04 14:20 39.92018 -106.13962 33888 ft 384 kts 280°
2026-05-04 14:21 39.93486 -106.24157 33897 ft 382 kts 280°
2026-05-04 14:21 39.94463 -106.30971 33914 ft 383 kts 280°
2026-05-04 14:22 39.95437 -106.37800 33899 ft 382 kts 279°
2026-05-04 14:22 39.96401 -106.44583 33926 ft 382 kts 279°
2026-05-04 14:23 39.97853 -106.54864 33916 ft 384 kts 279°
2026-05-04 14:24 39.98814 -106.61715 33904 ft 384 kts 279°
2026-05-04 14:24 39.99776 -106.68577 33911 ft 385 kts 279°
2026-05-04 14:25 40.00733 -106.75451 33912 ft 385 kts 279°
2026-05-04 14:25 40.02155 -106.85717 33917 ft 384 kts 279°
2026-05-04 14:26 40.02708 -106.92644 33931 ft 383 kts 274°
2026-05-04 14:26 40.02983 -106.99582 33924 ft 382 kts 273°
2026-05-04 14:27 40.03258 -107.06497 33930 ft 382 kts 273°
2026-05-04 14:27 40.03550 -107.13426 33936 ft 382 kts 273°
2026-05-04 14:28 40.03846 -107.20356 33954 ft 383 kts 273°
2026-05-04 14:28 40.04138 -107.27271 33967 ft 384 kts 273°
2026-05-04 14:29 40.04718 -107.41237 33922 ft 386 kts 273°
2026-05-04 14:30 40.05002 -107.48231 33907 ft 386 kts 273°
2026-05-04 14:31 40.05418 -107.58687 33927 ft 385 kts 273°
2026-05-04 14:32 40.05960 -107.72682 33893 ft 386 kts 272°
2026-05-04 14:32 40.06224 -107.79636 33861 ft 386 kts 272°
2026-05-04 14:32 40.06355 -107.83139 34049 ft 385 kts 272°
2026-05-04 14:33 40.06485 -107.86634 34045 ft 386 kts 272°
2026-05-04 14:33 40.06744 -107.93631 34050 ft 386 kts 272°
2026-05-04 14:34 40.07061 -108.00640 34036 ft 386 kts 273°
2026-05-04 14:34 40.07393 -108.07630 33994 ft 386 kts 273°
2026-05-04 14:35 40.07713 -108.14583 33970 ft 385 kts 273°
2026-05-04 14:35 40.07872 -108.18072 33838 ft 386 kts 273°
2026-05-04 14:35 40.08029 -108.21578 33835 ft 386 kts 273°
2026-05-04 14:36 40.08340 -108.28595 33840 ft 386 kts 273°
2026-05-04 14:36 40.08646 -108.35597 33848 ft 387 kts 273°
2026-05-04 14:37 40.08949 -108.42618 33839 ft 387 kts 272°
2026-05-04 14:37 40.09246 -108.49592 33821 ft 386 kts 272°
2026-05-04 14:38 40.09538 -108.56594 33837 ft 385 kts 272°
2026-05-04 14:38 40.09825 -108.63591 33823 ft 386 kts 272°
2026-05-04 14:39 40.10110 -108.70598 33818 ft 386 kts 272°
2026-05-04 14:39 40.10390 -108.77606 33818 ft 386 kts 272°
2026-05-04 14:40 40.10802 -108.88062 33818 ft 386 kts 272°
2026-05-04 14:40 40.11068 -108.95056 33826 ft 386 kts 272°
2026-05-04 14:41 40.11328 -109.02069 33816 ft 386 kts 272°
2026-05-04 14:42 40.11841 -109.16103 33816 ft 386 kts 271°
2026-05-04 14:42 40.12089 -109.23076 33825 ft 387 kts 271°
2026-05-04 14:43 40.12336 -109.30114 33828 ft 387 kts 271°
2026-05-04 14:43 40.12578 -109.37151 33862 ft 387 kts 271°
2026-05-04 14:44 40.12814 -109.44133 33858 ft 387 kts 271°
2026-05-04 14:44 40.13047 -109.51151 33844 ft 386 kts 271°
2026-05-04 14:45 40.13276 -109.58176 33848 ft 387 kts 271°
2026-05-04 14:45 40.13501 -109.65202 33845 ft 386 kts 271°
2026-05-04 14:46 40.13720 -109.72182 33834 ft 386 kts 271°
2026-05-04 14:46 40.13936 -109.79193 33828 ft 386 kts 271°
2026-05-04 14:47 40.14147 -109.86210 33825 ft 387 kts 271°
2026-05-04 14:47 40.14356 -109.93248 33824 ft 387 kts 271°
2026-05-04 14:48 40.14560 -110.00296 33821 ft 388 kts 271°
2026-05-04 14:48 40.14760 -110.07308 33829 ft 388 kts 271°
2026-05-04 14:49 40.14944 -110.14377 33825 ft 388 kts 269°
2026-05-04 14:49 40.14910 -110.21458 33842 ft 389 kts 268°
2026-05-04 14:50 40.14813 -110.28536 33844 ft 390 kts 268°
2026-05-04 14:50 40.14731 -110.35621 33856 ft 390 kts 268°
2026-05-04 14:51 40.14659 -110.42712 33883 ft 390 kts 268°
2026-05-04 14:51 40.14589 -110.49791 33867 ft 390 kts 268°
2026-05-04 14:52 40.14515 -110.56841 33859 ft 390 kts 268°
2026-05-04 14:52 40.14437 -110.63942 33864 ft 390 kts 268°
2026-05-04 14:53 40.14353 -110.71089 33098 ft 400 kts 268°
2026-05-04 14:53 40.14309 -110.74713 32374 ft 398 kts 268°
2026-05-04 14:53 40.14264 -110.78327 31570 ft 398 kts 268°
2026-05-04 14:54 40.14218 -110.81950 30735 ft 400 kts 268°
2026-05-04 14:54 40.14170 -110.85601 29865 ft 403 kts 268°
2026-05-04 14:54 40.14121 -110.89279 28864 ft 406 kts 268°
2026-05-04 14:54 40.14070 -110.92979 28020 ft 407 kts 268°
2026-05-04 14:55 40.14019 -110.96608 27411 ft 403 kts 268°
2026-05-04 14:55 40.13967 -111.00277 26804 ft 403 kts 268°
2026-05-04 14:55 40.13913 -111.03976 26166 ft 414 kts 268°
2026-05-04 14:55 40.13854 -111.07818 25532 ft 431 kts 268°
2026-05-04 14:56 40.13794 -111.11762 24846 ft 431 kts 268°
2026-05-04 14:56 40.13735 -111.15614 24191 ft 428 kts 268°
2026-05-04 14:56 40.13674 -111.19497 23555 ft 425 kts 267°
2026-05-04 14:56 40.13611 -111.23357 22804 ft 424 kts 268°
2026-05-04 14:57 40.13546 -111.27202 22120 ft 421 kts 268°
2026-05-04 14:57 40.13480 -111.31011 21467 ft 417 kts 268°
2026-05-04 14:57 40.13414 -111.34788 20829 ft 414 kts 268°
2026-05-04 14:57 40.13347 -111.38538 20207 ft 411 kts 268°
2026-05-04 14:58 40.13280 -111.42272 19587 ft 409 kts 268°
2026-05-04 14:58 40.13213 -111.45955 19276 ft 399 kts 268°
2026-05-04 14:58 40.13147 -111.49476 19097 ft 386 kts 268°
2026-05-04 14:58 40.13103 -111.51817 18981 ft 378 kts 269°
2026-05-04 14:59 40.13513 -111.56213 18739 ft 363 kts 291°
2026-05-04 14:59 40.14555 -111.59167 18734 ft 356 kts 297°
2026-05-04 14:59 40.16827 -111.65091 18449 ft 371 kts 296°
2026-05-04 15:00 40.17960 -111.68128 18280 ft 369 kts 296°
2026-05-04 15:00 40.19077 -111.71149 18107 ft 366 kts 297°
2026-05-04 15:00 40.19806 -111.73128 17995 ft 365 kts 296°
2026-05-04 15:01 40.22354 -111.80055 17636 ft 360 kts 296°
2026-05-04 15:01 40.23441 -111.83011 17485 ft 360 kts 296°
2026-05-04 15:01 40.24160 -111.84969 17450 ft 358 kts 296°
2026-05-04 15:01 40.25240 -111.87910 17297 ft 359 kts 296°
2026-05-04 15:02 40.26325 -111.90869 17147 ft 361 kts 296°
2026-05-04 15:02 40.27607 -111.93678 16950 ft 362 kts 312°
2026-05-04 15:02 40.29562 -111.95755 16680 ft 364 kts 329°
2026-05-04 15:02 40.31756 -111.97397 16364 ft 362 kts 331°
2026-05-04 15:03 40.33947 -111.98984 16044 ft 358 kts 331°
2026-05-04 15:03 40.36107 -112.00571 15727 ft 353 kts 330°
2026-05-04 15:03 40.38201 -112.02139 15447 ft 349 kts 330°
2026-05-04 15:03 40.40320 -112.03739 15170 ft 346 kts 330°
2026-05-04 15:04 40.42461 -112.05044 14862 ft 343 kts 346°
2026-05-04 15:04 40.44818 -112.05455 14591 ft 341 kts 354°
2026-05-04 15:04 40.47184 -112.05732 14268 ft 342 kts 354°
2026-05-04 15:04 40.49563 -112.06015 13961 ft 344 kts 354°
2026-05-04 15:05 40.51955 -112.06312 13627 ft 344 kts 354°
2026-05-04 15:05 40.54337 -112.06618 13270 ft 344 kts 354°
2026-05-04 15:05 40.56722 -112.06931 12922 ft 343 kts 353°
2026-05-04 15:05 40.59102 -112.07248 12585 ft 342 kts 354°
2026-05-04 15:06 40.61444 -112.07560 12261 ft 342 kts 353°
2026-05-04 15:06 40.63806 -112.07874 11988 ft 339 kts 353°
2026-05-04 15:06 40.66132 -112.08152 11873 ft 332 kts 354°
2026-05-04 15:07 40.70754 -112.08679 11629 ft 336 kts 354°
2026-05-04 15:07 40.73094 -112.08950 11502 ft 339 kts 353°
2026-05-04 15:07 40.75414 -112.09219 11380 ft 331 kts 353°
2026-05-04 15:07 40.77669 -112.09485 11277 ft 318 kts 353°
2026-05-04 15:08 40.79819 -112.09739 11210 ft 307 kts 353°
2026-05-04 15:08 40.81908 -112.09988 11129 ft 296 kts 354°
2026-05-04 15:08 40.83904 -112.10239 10945 ft 289 kts 352°
2026-05-04 15:08 40.85900 -112.10538 10618 ft 288 kts 351°
2026-05-04 15:09 40.87887 -112.10866 10304 ft 287 kts 350°
2026-05-04 15:09 40.89864 -112.11218 10000 ft 286 kts 351°
2026-05-04 15:09 40.91840 -112.11562 9662 ft 286 kts 349°
2026-05-04 15:10 40.95773 -112.12225 8982 ft 284 kts 350°
2026-05-04 15:10 40.97740 -112.12554 8673 ft 283 kts 352°
2026-05-04 15:10 41.01656 -112.13072 8025 ft 282 kts 352°
2026-05-04 15:11 41.03612 -112.13102 7702 ft 282 kts 12°
2026-05-04 15:11 41.05355 -112.12036 7432 ft 279 kts 41°
2026-05-04 15:11 41.06492 -112.10065 7375 ft 264 kts 69°
2026-05-04 15:11 41.06790 -112.07760 7287 ft 248 kts 98°
2026-05-04 15:12 41.06221 -112.05707 7120 ft 235 kts 129°
2026-05-04 15:12 41.05054 -112.04196 7079 ft 240 kts 140°
2026-05-04 15:12 41.03738 -112.02826 7024 ft 239 kts 154°
2026-05-04 15:12 41.02175 -112.02390 7022 ft 227 kts 178°
2026-05-04 15:13 41.00618 -112.02256 7009 ft 223 kts 175°
2026-05-04 15:13 40.99091 -112.02073 6999 ft 226 kts 176°
2026-05-04 15:13 40.97514 -112.01884 6979 ft 229 kts 175°
2026-05-04 15:13 40.95912 -112.01696 6990 ft 231 kts 175°
2026-05-04 15:14 40.94299 -112.01508 6812 ft 233 kts 175°
2026-05-04 15:14 40.92708 -112.01322 6596 ft 226 kts 175°
2026-05-04 15:14 40.91167 -112.01142 6353 ft 218 kts 174°
2026-05-04 15:14 40.89693 -112.00970 6098 ft 204 kts 174°
2026-05-04 15:15 40.88334 -112.00812 5835 ft 190 kts 174°
2026-05-04 15:15 40.87065 -112.00663 5573 ft 175 kts 175°
2026-05-04 15:15 40.85911 -112.00528 5285 ft 161 kts 175°
2026-05-04 15:16 40.83703 -112.00262 4828 ft 159 kts 174°
2026-05-04 15:16 40.82621 -112.00150 4606 ft 153 kts 174°
2026-05-04 15:16 40.80537 -111.99906 4247 ft 141 kts 174°
2026-05-04 15:17 40.79709 -111.99806 4229 ft 91 kts 175°
2026-05-04 15:17 40.79142 -111.99646 4230 ft 17 kts 136°
2026-05-04 15:17 40.79096 -111.99508 4230 ft 17 kts 94°
2026-05-04 15:18 40.79101 -111.99360 4230 ft 16 kts 86°
2026-05-04 15:18 40.79111 -111.99217 4230 ft 15 kts 84°
2026-05-04 15:18 40.79120 -111.99081 4230 ft 15 kts 85°
2026-05-04 15:19 40.79137 -111.98825 4230 ft 13 kts 85°
2026-05-04 15:19 40.79145 -111.98705 4229 ft 13 kts 85°
2026-05-04 15:19 40.79163 -111.98449 4230 ft 16 kts 85°
2026-05-04 15:20 40.79173 -111.98300 4230 ft 17 kts 85°
2026-05-04 15:20 40.79183 -111.98141 4230 ft 17 kts 85°
2026-05-04 15:20 40.79194 -111.97983 4230 ft 19 kts 84°
2026-05-04 15:20 40.79168 -111.97827 4230 ft 19 kts 160°
2026-05-04 15:21 40.79025 -111.97810 4230 ft 25 kts 175°
2026-05-04 15:21 40.78849 -111.97790 4230 ft 22 kts 175°
2026-05-04 15:21 40.78677 -111.97835 4230 ft 7 kts 199°
2026-05-04 15:22 40.78653 -111.97847 4230 ft 0 kts 200°